EW6800 Weather Reports


time (UTC)temp
F
wind
direction
speed
knots
gust
knots
rain 1hr
in
rain 24hr
in
rain mn
in
humidity
%
barometer
mb
20260901010056 56 303 5.2 8.7 0.00 0.00 0.00 84 1014.0
20260901005544 56 304 5.2 8.7 0.00 0.00 0.00 83 1014.0
20260901005043 57 303 4.3 9.6 0.00 0.00 0.00 82 1014.0
20260901004605 57 298 4.3 9.6 0.00 0.00 0.00 81 1014.0
20260901004042 57 313 6.1 9.6 0.00 0.00 0.00 80 1014.0
20260901003542 58 317 5.2 10.4 0.00 0.00 0.00 80 1014.0
20260901003105 58 297 3.5 10.4 0.00 0.00 0.00 80 1013.9
20260901002543 58 312 6.1 10.4 0.00 0.00 0.00 79 1014.0
20260901002048 58 306 5.2 8.7 0.00 0.00 0.00 78 1013.8
20260901001553 59 298 5.2 9.6 0.00 0.00 0.00 78 1013.8
20260901001045 59 290 5.2 9.6 0.00 0.00 0.00 77 1013.7
20260901000543 59 309 6.1 9.6 0.00 0.00 0.00 77 1013.8
20260901000055 59 311 4.3 8.7 0.00 0.00 0.00 77 1013.9
20260831235540 59 297 4.3 8.7 0.00 0.00 0.00 77 1013.9
20260831235040 60 305 4.3 8.7 0.00 0.00 0.00 77 1014.0
20260831234558 60 286 5.2 9.6 0.00 0.00 0.00 76 1014.0
20260831234040 60 296 4.3 9.6 0.00 0.00 0.00 75 1013.9
20260831233540 61 300 4.3 9.6 0.00 0.00 0.00 75 1013.9
20260831233100 61 309 5.2 8.7 0.00 0.00 0.00 74 1013.9
20260831232542 61 293 4.3 8.7 0.00 0.00 0.00 74 1014.0
20260831232042 61 302 4.3 8.7 0.00 0.00 0.00 74 1014.0
20260831231559 62 301 3.5 8.7 0.00 0.00 0.00 74 1014.1
20260831231043 61 319 4.3 8.7 0.00 0.00 0.00 74 1014.1
20260831230545 62 292 4.3 8.7 0.00 0.00 0.00 73 1014.1
20260831230106 62 298 5.2 9.6 0.00 0.00 0.00 74 1014.1
20260831225543 62 281 4.3 9.6 0.00 0.00 0.00 74 1014.1
20260831225046 62 296 3.5 8.7 0.00 0.00 0.00 74 1014.2
20260831224603 62 304 4.3 8.7 0.00 0.00 0.00 73 1014.2
20260831224043 62 305 3.5 7.8 0.00 0.00 0.00 74 1014.2
20260831223543 62 314 4.3 7.8 0.00 0.00 0.00 75 1014.1
20260831223103 62 303 3.5 7.0 0.00 0.00 0.00 76 1014.2
20260831222543 62 285 3.5 7.8 0.00 0.00 0.00 76 1014.1
20260831222044 62 302 2.6 7.8 0.00 0.00 0.00 76 1014.3
20260831221557 62 322 3.5 7.8 0.00 0.00 0.00 77 1014.4
20260831221040 61 310 3.5 7.8 0.00 0.00 0.00 77 1014.5
20260831220543 61 287 3.5 7.8 0.00 0.00 0.00 77 1014.5
20260831220052 62 302 4.3 7.8 0.00 0.00 0.00 78 1014.6
20260831215543 61 319 2.6 8.7 0.00 0.00 0.00 78 1014.7
20260831215039 61 292 2.6 8.7 0.00 0.00 0.00 80 1014.7
20260831214622 61 297 3.5 7.0 0.00 0.00 0.00 79 1014.8
20260831214042 61 305 3.5 7.0 0.00 0.00 0.00 79 1014.8
20260831213543 60 311 2.6 6.1 0.00 0.00 0.00 81 1014.9
20260831213059 60 300 2.6 7.0 0.00 0.00 0.00 81 1014.8
20260831212544 60 304 2.6 7.8 0.00 0.00 0.00 82 1014.9
20260831212046 60 300 2.6 7.8 0.00 0.00 0.00 81 1015.0
20260831211554 60 303 3.5 7.0 0.00 0.00 0.00 82 1015.0
20260831211043 59 295 2.6 5.2 0.00 0.00 0.00 83 1015.0
20260831210546 59 318 2.6 6.1 0.00 0.00 0.00 83 1015.1
20260831210100 59 311 2.6 7.0 0.00 0.00 0.00 84 1015.1
20260831205543 58 313 3.5 7.0 0.00 0.00 0.00 84 1015.1
20260831205045 58 317 2.6 7.0 0.00 0.00 0.00 85 1015.1
20260831204602 58 311 2.6 7.0 0.00 0.00 0.00 85 1015.1
20260831204044 58 306 2.6 7.0 0.00 0.00 0.00 87 1015.1
20260831203546 57 299 2.6 6.1 0.00 0.00 0.00 86 1015.1
20260831203055 57 313 2.6 6.1 0.00 0.00 0.00 87 1015.1
20260831202544 57 300 1.7 6.1 0.00 0.00 0.00 89 1015.1
20260831202044 57 298 2.6 7.8 0.00 0.00 0.00 89 1015.2
20260831201557 56 297 3.5 7.8 0.00 0.00 0.00 89 1015.1
20260831201045 56 309 3.5 7.8 0.00 0.00 0.00 91 1015.1
20260831200544 56 304 3.5 6.1 0.00 0.00 0.00 92 1015.2
20260831200053 56 338 3.5 6.1 0.00 0.00 0.00 93 1015.1
20260831195544 56 309 1.7 6.1 0.00 0.00 0.00 94 1015.1
20260831195044 55 300 1.7 6.1 0.00 0.00 0.00 95 1015.1
20260831194600 55 308 2.6 6.1 0.00 0.00 0.00 95 1015.2
20260831194044 55 302 1.7 7.8 0.00 0.00 0.00 95 1015.4
20260831193546 55 286 1.7 7.8 0.00 0.00 0.00 96 1015.4
20260831193058 54 311 1.7 4.3 0.00 0.00 0.00 96 1015.5
20260831192543 54 305 1.7 4.3 0.00 0.00 0.00 96 1015.5
20260831192043 54 294 1.7 6.1 0.00 0.00 0.00 96 1015.7
20260831191603 54 317 1.7 6.1 0.00 0.00 0.00 96 1015.7
20260831191045 54 297 2.6 6.1 0.00 0.00 0.00 96 1015.7
20260831190543 53 301 2.6 7.0 0.00 0.00 0.00 96 1015.7
20260831190113 53 301 2.6 7.0 0.00 0.00 0.00 96 1015.6
20260831185545 53 296 2.6 7.0 0.00 0.00 0.00 96 1015.5
20260831185045 53 288 2.6 7.0 0.00 0.00 0.00 96 1015.4
20260831184604 53 313 1.7 6.1 0.00 0.00 0.00 96 1015.4
20260831184043 53 304 2.6 6.1 0.00 0.00 0.00 96 1015.5
20260831183544 53 306 3.5 6.1 0.00 0.00 0.00 96 1015.6
20260831183101 53 307 3.5 6.1 0.00 0.00 0.00 96 1015.6
20260831182543 53 315 1.7 4.3 0.00 0.00 0.00 96 1015.7
20260831182044 53 300 0.0 1.7 0.00 0.00 0.00 96 1015.8
20260831181554 52 314 0.0 3.5 0.00 0.00 0.00 96 1015.8
20260831181044 52 314 0.9 3.5 0.00 0.00 0.00 96 1015.7
20260831180544 52 314 2.6 3.5 0.00 0.00 0.00 96 1015.7
20260831180057 52 315 0.0 4.3 0.00 0.00 0.00 96 1015.6
20260831175543 52 315 0.9 4.3 0.00 0.00 0.00 96 1015.6
20260831175044 52 314 0.0 2.6 0.00 0.00 0.00 96 1015.7
20260831174609 52 0 0.9 4.3 0.00 0.00 0.00 96 1015.6
20260831174044 51 314 0.0 4.3 0.00 0.00 0.00 96 1015.6
20260831173549 51 314 1.7 4.3 0.00 0.00 0.00 96 1015.6
20260831173057 51 0 0.9 3.5 0.00 0.00 0.00 96 1015.6
20260831172543 51 306 1.7 4.3 0.00 0.00 0.00 96 1015.7
20260831172043 51 316 0.0 4.3 0.00 0.00 0.00 96 1015.6
20260831171606 51 317 0.9 4.3 0.00 0.00 0.00 96 1015.6
20260831171044 51 314 0.9 3.5 0.00 0.00 0.00 96 1015.5
20260831170543 51 314 1.7 3.5 0.00 0.00 0.00 96 1015.4
20260831165543 51 0 0.9 6.1 0.00 0.00 0.00 96 1015.3
20260831165043 51 315 0.9 6.1 0.00 0.00 0.00 96 1015.3
20260831164607 51 322 1.7 4.3 0.00 0.00 0.00 96 1015.1
20260831164043 51 316 2.6 4.3 0.00 0.00 0.00 96 1015.1
20260831163545 51 313 0.9 3.5 0.00 0.00 0.00 96 1015.1
20260831163056 51 336 1.7 3.5 0.00 0.00 0.00 96 1015.1
20260831162543 51 306 0.9 2.6 0.00 0.00 0.00 96 1015.1
20260831162043 50 307 0.0 3.5 0.00 0.00 0.00 96 1014.9
20260831161554 50 307 0.9 4.3 0.00 0.00 0.00 96 1014.9
20260831161045 50 0 0.9 5.2 0.00 0.00 0.00 96 1014.8
20260831160544 50 305 2.6 6.1 0.00 0.00 0.00 96 1014.6
20260831160051 50 310 3.5 6.1 0.00 0.00 0.00 96 1014.6
20260831155547 50 326 1.7 3.5 0.00 0.00 0.00 96 1014.6
20260831155046 50 312 0.9 7.0 0.00 0.00 0.00 96 1014.7
20260831154620 50 313 2.6 7.0 0.00 0.00 0.00 96 1014.6
20260831154043 50 317 0.9 3.5 0.00 0.00 0.00 96 1014.5
20260831153543 50 312 1.7 3.5 0.00 0.00 0.00 96 1014.5
20260831153059 50 306 1.7 3.5 0.00 0.00 0.00 96 1014.4
20260831152546 50 315 1.7 3.5 0.00 0.00 0.00 96 1014.4
20260831152043 50 315 1.7 4.3 0.00 0.00 0.00 96 1014.4
20260831151553 50 315 1.7 6.1 0.00 0.00 0.00 96 1014.4
20260831151043 50 320 1.7 7.0 0.00 0.00 0.00 95 1014.4
20260831150543 50 324 3.5 7.0 0.00 0.00 0.00 96 1014.4
20260831150049 50 321 2.6 6.1 0.00 0.00 0.00 96 1014.3
20260831145543 50 311 2.6 5.2 0.00 0.00 0.00 96 1014.3
20260831145043 50 309 1.7 6.1 0.00 0.00 0.00 96 1014.0
20260831144551 50 321 2.6 6.1 0.00 0.00 0.00 96 1014.0
20260831144044 50 326 1.7 7.8 0.00 0.00 0.00 96 1014.0
20260831143543 50 318 3.5 7.8 0.00 0.00 0.00 95 1014.0
20260831143102 50 315 2.6 7.8 0.00 0.00 0.00 95 1014.0
20260831142546 50 319 2.6 6.1 0.00 0.00 0.00 96 1013.8
20260831142043 50 302 2.6 6.1 0.00 0.00 0.00 95 1013.7
20260831141557 50 312 1.7 7.0 0.00 0.00 0.00 95 1013.7
20260831141043 50 312 2.6 7.0 0.00 0.00 0.00 95 1013.7
20260831140543 50 300 2.6 7.0 0.00 0.00 0.00 95 1013.6
20260831140054 50 315 2.6 7.0 0.00 0.00 0.00 95 1013.7
20260831135544 50 316 2.6 7.0 0.00 0.00 0.00 95 1013.6
20260831135044 50 317 2.6 7.0 0.00 0.00 0.00 95 1013.5
20260831134604 50 309 3.5 7.0 0.00 0.00 0.00 95 1013.6
20260831134043 50 322 2.6 7.0 0.00 0.00 0.00 95 1013.5
20260831133543 50 314 3.5 7.8 0.00 0.00 0.00 95 1013.4
20260831133059 50 321 3.5 7.8 0.00 0.00 0.00 95 1013.4
20260831132543 50 321 3.5 8.7 0.00 0.00 0.00 95 1013.4
20260831132047 50 308 4.3 8.7 0.00 0.00 0.00 95 1013.3
20260831131600 49 302 4.3 7.8 0.00 0.00 0.00 95 1013.4
20260831131044 49 330 4.3 7.0 0.00 0.00 0.00 95 1013.4
20260831130544 49 313 3.5 7.0 0.00 0.00 0.00 95 1013.4
20260831130058 49 296 2.6 7.0 0.00 0.00 0.00 95 1013.4
20260831125544 49 308 3.5 7.0 0.00 0.00 0.00 95 1013.5
20260831125043 49 314 2.6 7.0 0.00 0.00 0.00 95 1013.6
20260831124603 49 315 2.6 7.0 0.00 0.00 0.00 95 1013.6
20260831124044 49 307 3.5 7.0 0.00 0.00 0.00 95 1013.5
20260831123544 49 308 2.6 7.0 0.00 0.00 0.00 95 1013.5
20260831123100 49 315 3.5 7.0 0.00 0.00 0.00 95 1013.5
20260831122543 49 310 3.5 7.0 0.00 0.00 0.00 95 1013.5
20260831122044 49 304 2.6 7.0 0.00 0.00 0.00 95 1013.4
20260831121558 49 317 2.6 6.1 0.00 0.00 0.00 95 1013.3
20260831121043 49 314 2.6 6.1 0.00 0.00 0.00 95 1013.3
20260831120542 49 316 3.5 7.0 0.00 0.00 0.00 95 1013.3
20260831120056 49 309 3.5 7.0 0.00 0.00 0.00 95 1013.2
20260831115543 49 305 2.6 6.1 0.00 0.00 0.00 95 1013.3
20260831115043 48 306 3.5 7.8 0.00 0.00 0.00 95 1013.4
20260831114600 49 309 4.3 7.8 0.00 0.00 0.00 95 1013.3
20260831114047 49 299 2.6 6.1 0.00 0.00 0.00 95 1013.3
20260831113544 49 313 1.7 4.3 0.00 0.00 0.00 95 1013.4
20260831113114 49 308 2.6 4.3 0.00 0.00 0.00 95 1013.3
20260831112546 49 311 1.7 3.5 0.00 0.00 0.00 95 1013.4
20260831112044 49 313 1.7 3.5 0.00 0.00 0.00 95 1013.4
20260831111551 49 312 1.7 5.2 0.00 0.00 0.00 95 1013.4
20260831111043 49 317 1.7 5.2 0.00 0.00 0.00 95 1013.5
20260831110547 49 322 1.7 5.2 0.00 0.00 0.00 95 1013.4
20260831110100 49 311 2.6 5.2 0.00 0.00 0.00 95 1013.4
20260831105544 48 304 1.7 4.3 0.00 0.00 0.00 95 1013.3
20260831105044 48 304 1.7 4.3 0.00 0.00 0.00 94 1013.3
20260831104601 48 316 2.6 4.3 0.00 0.00 0.00 94 1013.3
20260831104043 48 311 2.6 4.3 0.00 0.00 0.00 94 1013.3
20260831103546 48 306 2.6 4.3 0.00 0.00 0.00 94 1013.3
20260831103058 48 310 1.7 3.5 0.00 0.00 0.00 94 1013.2
20260831102546 48 312 1.7 3.5 0.00 0.00 0.00 94 1013.2
20260831102044 48 302 0.9 2.6 0.00 0.00 0.00 94 1013.2
20260831101555 48 294 0.0 0.9 0.00 0.00 0.00 94 1013.2
20260831101045 48 0 0.0 1.7 0.00 0.00 0.00 94 1013.1
20260831100549 48 294 0.0 2.6 0.00 0.00 0.00 94 1013.1
20260831100216 48 294 0.0 2.6 0.00 0.00 0.00 94 1013.1
20260831095543 48 294 0.9 2.6 0.00 0.00 0.00 94 1013.2
20260831095044 48 294 0.9 1.7 0.00 0.00 0.00 94 1013.2
20260831094614 48 254 0.9 1.7 0.00 0.00 0.00 94 1013.1
20260831094044 48 0 0.0 0.0 0.00 0.00 0.00 94 1013.0
20260831093544 48 0 0.0 0.9 0.00 0.00 0.00 94 1013.0
20260831093057 48 0 0.0 2.6 0.00 0.00 0.00 93 1013.1
20260831092545 48 0 0.0 2.6 0.00 0.00 0.00 93 1013.1
20260831092045 48 244 0.9 2.6 0.00 0.00 0.00 93 1013.2
20260831091552 48 154 0.9 1.7 0.00 0.00 0.00 93 1013.2
20260831091048 48 145 0.9 2.6 0.00 0.00 0.00 93 1013.2
20260831090546 49 144 0.9 2.6 0.00 0.00 0.00 92 1013.2
20260831090107 49 0 0.0 0.0 0.00 0.00 0.00 93 1013.2
20260831085544 49 0 0.0 0.0 0.00 0.00 0.00 93 1013.2
20260831085044 49 0 0.0 0.0 0.00 0.00 0.00 92 1013.3
20260831084602 49 0 0.0 0.0 0.00 0.00 0.00 92 1013.4
20260831084043 49 0 0.0 0.9 0.00 0.00 0.00 92 1013.4
20260831083543 49 0 0.0 1.7 0.00 0.00 0.00 91 1013.4
20260831083109 50 0 0.0 1.7 0.00 0.00 0.00 91 1013.4
20260831082544 50 144 0.0 0.9 0.00 0.00 0.00 90 1013.3
20260831082044 50 0 0.0 0.0 0.00 0.00 0.00 90 1013.3
20260831081609 51 0 0.0 0.0 0.00 0.00 0.00 90 1013.4
20260831081044 51 0 0.0 0.0 0.00 0.00 0.00 90 1013.4
20260831080544 52 0 0.0 0.0 0.00 0.00 0.00 89 1013.4
20260831080100 52 0 0.0 0.0 0.00 0.00 0.00 90 1013.4
20260831075543 52 0 0.0 0.0 0.00 0.00 0.00 89 1013.4
20260831075043 52 0 0.0 0.0 0.00 0.00 0.00 89 1013.5
20260831074557 52 0 0.0 0.0 0.00 0.00 0.00 89 1013.5
20260831074045 52 0 0.0 0.0 0.00 0.00 0.00 88 1013.5
20260831073543 52 0 0.0 0.9 0.00 0.00 0.00 87 1013.4
20260831073105 53 0 0.0 0.9 0.00 0.00 0.00 86 1013.4
20260831072543 54 0 0.0 0.9 0.00 0.00 0.00 86 1013.4
20260831072044 54 0 0.0 0.0 0.00 0.00 0.00 87 1013.3
20260831071602 55 0 0.0 0.0 0.00 0.00 0.00 88 1013.3
20260831071045 55 0 0.0 0.0 0.00 0.00 0.00 88 1013.3
20260831070544 55 0 0.0 0.0 0.00 0.00 0.00 88 1013.3
20260831065544 55 0 0.0 0.9 0.00 0.00 0.00 90 1013.3
20260831065044 54 0 0.0 0.9 0.00 0.00 0.00 90 1013.3
20260831064603 54 0 0.0 0.9 0.00 0.00 0.00 90 1013.3
20260831064047 54 0 0.0 1.7 0.00 0.00 0.00 90 1013.4
20260831063543 54 0 0.0 1.7 0.00 0.00 0.00 90 1013.4
20260831063059 54 0 0.9 1.7 0.00 0.00 0.00 90 1013.6
20260831062544 54 0 0.0 0.0 0.00 0.00 0.00 89 1013.6
20260831062044 54 0 0.0 0.0 0.00 0.00 0.00 89 1013.5
20260831061605 54 0 0.0 0.0 0.00 0.00 0.00 89 1013.6
20260831061046 54 0 0.0 0.9 0.00 0.00 0.00 88 1013.7
20260831060543 54 0 0.0 0.9 0.00 0.00 0.00 88 1013.7
20260831060059 55 0 0.0 2.6 0.00 0.00 0.00 88 1013.6
20260831055544 55 0 0.0 2.6 0.00 0.00 0.00 88 1013.6
20260831055044 55 144 1.7 2.6 0.00 0.00 0.00 87 1013.6
20260831054553 55 139 0.9 2.6 0.00 0.00 0.00 87 1013.6
20260831054044 55 0 0.9 2.6 0.00 0.00 0.00 86 1013.5
20260831053544 56 0 0.0 2.6 0.00 0.00 0.00 86 1013.5
20260831053102 56 131 0.9 2.6 0.00 0.00 0.00 85 1013.7
20260831052549 56 131 0.0 2.6 0.00 0.00 0.00 84 1013.7
20260831052044 57 0 0.0 3.5 0.00 0.00 0.00 84 1013.8
20260831051608 57 131 1.7 3.5 0.00 0.00 0.00 83 1013.7
20260831051043 57 124 1.7 2.6 0.00 0.00 0.00 83 1013.7
20260831050544 57 117 0.9 2.6 0.00 0.00 0.00 83 1013.7
20260831050059 57 117 0.9 2.6 0.00 0.00 0.00 83 1013.8
20260831045544 57 117 0.9 2.6 0.00 0.00 0.00 83 1013.8
20260831045044 58 0 1.7 2.6 0.00 0.00 0.00 83 1013.8
20260831044612 58 117 0.0 2.6 0.00 0.00 0.00 82 1013.8
20260831044045 58 0 0.0 2.6 0.00 0.00 0.00 82 1013.7
20260831043543 58 117 0.9 2.6 0.00 0.00 0.00 83 1013.8
20260831043059 58 0 0.0 1.7 0.00 0.00 0.00 82 1013.8
20260831042547 58 0 0.0 1.7 0.00 0.00 0.00 83 1013.8
20260831042047 57 0 0.0 1.7 0.00 0.00 0.00 83 1013.8
20260831041600 57 0 0.0 0.0 0.00 0.00 0.00 83 1013.7
20260831041043 57 0 0.0 0.0 0.00 0.00 0.00 84 1013.7
20260831040543 57 0 0.0 0.0 0.00 0.00 0.00 85 1013.7
20260831040109 57 0 0.0 0.0 0.00 0.00 0.00 85 1013.6
20260831035543 57 0 0.0 0.0 0.00 0.00 0.00 85 1013.6
20260831035043 57 0 0.0 0.0 0.00 0.00 0.00 86 1013.5
20260831034559 57 0 0.0 0.9 0.00 0.00 0.00 86 1013.5
20260831034043 57 0 0.0 0.9 0.00 0.00 0.00 86 1013.4
20260831033543 57 0 0.0 0.9 0.00 0.00 0.00 86 1013.5
20260831033100 57 0 0.0 0.9 0.00 0.00 0.00 86 1013.3
20260831032544 57 0 0.0 0.9 0.00 0.00 0.00 87 1013.3
20260831032048 56 0 0.0 0.9 0.00 0.00 0.00 87 1013.3
20260831031602 56 0 0.0 0.0 0.00 0.00 0.00 87 1013.3
20260831031043 56 0 0.0 0.0 0.00 0.00 0.00 87 1013.3
20260831030544 56 0 0.0 0.0 0.00 0.00 0.00 87 1013.3
20260831025544 56 0 0.0 1.7 0.00 0.00 0.00 85 1013.3
20260831025051 56 314 0.9 1.7 0.00 0.00 0.00 84 1013.3
20260831024601 57 0 0.0 1.7 0.00 0.00 0.00 84 1013.2
20260831024043 57 307 0.9 2.6 0.00 0.00 0.00 83 1013.2
20260831023547 58 306 0.9 2.6 0.00 0.00 0.00 82 1013.3
20260831023103 58 313 0.0 2.6 0.00 0.00 0.00 81 1013.3
20260831022543 59 311 0.0 1.7 0.00 0.00 0.00 81 1013.3
20260831022043 59 306 0.0 2.6 0.00 0.00 0.00 80 1013.3
20260831021551 59 0 0.0 2.6 0.00 0.00 0.00 79 1013.3
20260831021044 60 304 0.9 2.6 0.00 0.00 0.00 79 1013.2
20260831020547 60 300 0.9 3.5 0.00 0.00 0.00 78 1013.2
20260831015543 61 302 1.7 4.3 0.00 0.00 0.00 77 1013.3
20260831015043 61 305 1.7 3.5 0.00 0.00 0.00 76 1013.2
20260831014557 62 294 1.7 4.3 0.00 0.00 0.00 76 1013.2
20260831014043 62 302 1.7 4.3 0.00 0.00 0.00 75 1013.3
20260831013543 62 313 1.7 3.5 0.00 0.00 0.00 74 1013.3
20260831013108 63 313 1.7 4.3 0.00 0.00 0.00 73 1013.3
20260831012546 63 308 1.7 4.3 0.00 0.00 0.00 73 1013.3
20260831012046 64 305 1.7 4.3 0.00 0.00 0.00 72 1013.4
20260831011603 64 305 1.7 3.5 0.00 0.00 0.00 72 1013.4
20260831011048 64 304 0.9 3.5 0.00 0.00 0.00 71 1013.4
20260831010545 64 304 1.7 4.3 0.00 0.00 0.00 71 1013.5